THOR ABLESTAR DEB, 658

Orbit data source: Space-Track

THOR ABLESTAR DEB, 658 is space debris in LEO originally from a launch on Thu, 29 Jun 1961 UTC launched from the Air Force Eastern Test Range (AFETR). Debris objects in space refer to the collection of defunct objects orbiting the Earth. Examples of debris include non-operational satellites, rocket bodies, and fragments generated from explosions, collisions, or faulty payload assembly.

Loading next visibility...
Identifier
658, 1961-015HK
Orbit
LEO
Country
Flag of USUS
Related business
Manufacturer
Unknown
Mission
Spacecraft
Bus & Motor
Unknown
Mass
Unknown
Launch date (UTC)
1961-06-29 (64 years ago)
Launch vehicle
Unknown
Launch site
Air Force Eastern Test Range (AFETR)
Object type
Payload
Rocket body
Debris
Shape & HBR
Unknown shape, 0.1 m
Radar Cross Section
Small (<0.1 m²)

Expand to show TLE details & history
Last TLE update: 20 hours ago

TLE from 20 hours ago
0 THOR ABLESTAR DEB
1 00658U 61015HK  25310.04582084  .00002423  00000-0  31031-2 0  9995
2 00658  65.8650 294.6943 0354423 318.0721  39.3672 13.41297041 29666
Epoch: 2025-11-06T01:05Z
TLE epoch observation values (Epoch: 2025-11-06T01:05:58.920Z)
Latitude
-0.00006°
Longitude
-127.311°
Altitude
905.311 km
Speed
7.498 km/s
True Right ascension
19h 38m 46s
True Declination
0° 00' 00"
Sunlit
Object was in daylight at epoch
Visualization orbit readout
Latitude
Unknown
Longitude
Unknown
Altitude
Unknown
Speed
Unknown
Apparent Right ascension
Unknown
Apparent Declination
Unknown
Sunlit
N/A
Visualization observer readout
Local Sidereal Time
16:47:59
Azimuth
Unknown
Elevation
Unknown
Doppler factor
Unknown
Orbital elements
Apogee altitude
1,368.135 km
Perigee altitude
837.838 km
Semi-major axis
7,481.124 km
Eccentricity
0.03544
Inclination
65.865°
RAAN
294.6943°
Arg. of periapsis
318.0721°
True anomaly
42.03355°
Mean anomaly
39.3672°
Eccentric anomaly
40.69118°
Mean motion
3.35423 °/min
Orbital period
107.33 mins
BSTAR
0.0031031
Loading maneuver chart data...
Computing Atmospheric mass density...

Documentation

Showing up to 5 results
|